Location: Unspecified
(51.6250°N, 0.8230°E)
Time: 16:28:49
(UTC+01:00)

Cosmos 1674 - Visible Passes

Search period start: 22 September 2018 00:00
Search period end: 02 October 2018 00:00
Orbit: 497 x 520 km, 82.5° (Epoch: 20 September)

Date Brightness Start Highest point End Pass type
(mag) Time Alt. Az. Time Alt. Az. Time Alt. Az.
22 Sep 4.4 19:37:02 10° NNE 19:39:36 17° ENE 19:42:01 10° ESE visible
22 Sep 3.3 21:11:43 10° NNW 21:15:31 54° W 21:16:54 34° SSW visible
23 Sep 2.9 20:54:25 10° NNW 20:58:17 69° W 21:00:08 29° S visible
24 Sep 2.7 20:37:09 10° N 20:41:02 87° W 20:43:25 22° S visible
25 Sep 2.6 20:19:53 10° N 20:23:46 75° E 20:26:47 16° SSE visible
25 Sep 5.8 21:57:19 10° WNW 21:58:44 12° W 22:00:09 10° WSW visible
26 Sep 2.7 20:02:38 10° N 20:06:30 59° ENE 20:10:14 10° SSE visible
26 Sep 5.7 21:39:26 10° NW 21:41:35 15° W 21:43:44 10° WSW visible
27 Sep 3.0 19:45:26 10° N 19:49:12 46° ENE 19:52:56 10° SSE visible
27 Sep 5.5 21:21:47 10° NW 21:24:26 18° W 21:27:03 10° SW visible
28 Sep 3.3 19:28:15 10° N 19:31:53 37° ENE 19:35:30 10° SE visible
28 Sep 5.2 21:04:15 10° NW 21:07:15 22° W 21:10:15 10° SW visible
29 Sep 3.6 19:11:06 10° N 19:14:35 30° ENE 19:18:01 10° SE visible
29 Sep 4.9 20:46:46 10° NNW 20:50:04 27° W 20:53:20 10° SSW visible
30 Sep 4.5 20:29:22 10° NNW 20:32:52 33° W 20:36:20 10° SSW visible
01 Oct 4.1 20:11:59 10° NNW 20:15:39 41° W 20:19:17 10° SSW visible
